FW3874 Mount Kisco NY US current weather conditions

sailwx.info

Wind from 141

Air temperature -3.9° C
Dewpoint -7.5° C

Last reported at 2019-Dec-12 23:10 UTC.
Time now 2019-Dec-12 23:35 UTC

Location: N 41°11' W 073°44'.
View on Google Maps.

See reports from other nearby stations

  
Tides and Currents Weather Stations Pressure Air Temp Water Temp Dewpoint Dewpoint Depression Visibility Wind Speed Wind Dir Waves Ship Positions
date/time (UTC)wind fromknots sea level pressurealtimeterstation pressurevisibilityair tempwater tempwave heightnotes
2019-Dec-12 23:10 141 -3.9
2019-Dec-12 23:05 141 -3.9
2019-Dec-12 23:00 141 -3.9
2019-Dec-12 22:55 141 -3.9
2019-Dec-12 22:50 141 -3.9
2019-Dec-12 22:45 141 -3.9
2019-Dec-12 22:40 141 -3.9
2019-Dec-12 22:35 141 -3.9
2019-Dec-12 22:30 141 -3.9
2019-Dec-12 22:25 141 -3.9
2019-Dec-12 22:20 141 -3.9
2019-Dec-12 22:15 141 -3.9
2019-Dec-12 22:10 141 -3.9
2019-Dec-12 22:05 141 -3.9
2019-Dec-12 22:00 141 -3.3
2019-Dec-12 21:55 141 -3.3
2019-Dec-12 21:50 141 -3.3
2019-Dec-12 21:45 141 -3.3
2019-Dec-12 21:40 141 -3.3
2019-Dec-12 21:35 141 -2.8
2019-Dec-12 21:30 141 -2.8
2019-Dec-12 21:25 141 -2.8
2019-Dec-12 21:20 141 -2.8
2019-Dec-12 21:10 141 -2.2
2019-Dec-12 21:05 141 -2.2
2019-Dec-12 21:00 141 -2.2
2019-Dec-12 20:55 141 -2.2
2019-Dec-12 20:50 141 -2.2
2019-Dec-12 20:45 141 -1.7
2019-Dec-12 20:40 141 -1.7
2019-Dec-12 20:35 141 -1.7
2019-Dec-12 20:30 141 -1.7
2019-Dec-12 20:25 141 -1.7
2019-Dec-12 20:20 141 -1.7
2019-Dec-12 20:15 141 -1.7
2019-Dec-12 20:10 141 -1.7
2019-Dec-12 20:05 141 -1.1
2019-Dec-12 20:00 141 -1.1
2019-Dec-12 19:55 141 -1.1
2019-Dec-12 19:50 141 -1.1
2019-Dec-12 19:45 141 -1.1
2019-Dec-12 19:40 141 -1.1
2019-Dec-12 19:35 141 -1.1
2019-Dec-12 19:30 186 -1.1
2019-Dec-12 19:25 186 -1.1
2019-Dec-12 19:15 219 -1.1
2019-Dec-12 19:10 180 -1.1
2019-Dec-12 19:05 195 -1.1
2019-Dec-12 19:00 125 0 gusting 1 -1.1
2019-Dec-12 18:55 136 -1.1
2019-Dec-12 18:50 075 -1.1
2019-Dec-12 18:45 309 -1.1
2019-Dec-12 18:40 321 -1.1
2019-Dec-12 18:35 321 0 gusting 0 -1.1
2019-Dec-12 18:30 352 0 gusting 1 -1.1
2019-Dec-12 18:25 274 1 gusting 2 -1.1
2019-Dec-12 18:20 138 2 gusting 4 -1.1
2019-Dec-12 18:15 258 0 gusting 0 -1.1
2019-Dec-12 18:10 301 -1.1
2019-Dec-12 18:05 304 2 gusting 5 -1.1
2019-Dec-12 18:00 331 0 gusting 1 -1.7
2019-Dec-12 17:55 324 -1.7
2019-Dec-12 17:50 281 1 gusting 2 -1.7
2019-Dec-12 17:45 335 0 gusting 1 -1.7
2019-Dec-12 17:40 300 -1.7
2019-Dec-12 17:35 282 -1.7
2019-Dec-12 17:30 241 1 gusting 2 -1.7
2019-Dec-12 17:25 224 2 gusting 3 -1.7
2019-Dec-12 17:20 224 1 gusting 2 -1.7
2019-Dec-12 17:15 245 1 gusting 1 -1.7
2019-Dec-12 17:10 327 1 gusting 2 -1.7
2019-Dec-12 17:05 352 0 gusting 0 -1.7
2019-Dec-12 17:00 306 1 gusting 2 -1.7
2019-Dec-12 16:55 309 0 gusting 1 -1.7
2019-Dec-12 16:50 284 0 gusting 2 -1.7
2019-Dec-12 16:45 124 -2.2
2019-Dec-12 16:40 315 -2.2
2019-Dec-12 16:35 248 1 gusting 2 -2.2
2019-Dec-12 16:30 281 0 gusting 1 -2.2
2019-Dec-12 16:25 265 0 gusting 0 -2.2
2019-Dec-12 16:20 051 -2.2
2019-Dec-12 16:15 229 -2.2
2019-Dec-12 16:10 268 -2.2
2019-Dec-12 16:05 065 -2.2
2019-Dec-12 16:00 257 -2.2
2019-Dec-12 15:55 068 -2.8
2019-Dec-12 15:50 051 -2.8
2019-Dec-12 15:45 244 2 gusting 3 -2.8
2019-Dec-12 15:40 279 0 gusting 1 -2.8
2019-Dec-12 15:35 302 0 gusting 0 -2.8
2019-Dec-12 15:30 356 -2.8
2019-Dec-12 15:25 072 -3.3
2019-Dec-12 15:20 055 -3.3
2019-Dec-12 15:15 056 -3.3
2019-Dec-12 15:10 282 -3.3
2019-Dec-12 15:05 221 -3.9
2019-Dec-12 15:00 269 0 gusting 0 -3.9
2019-Dec-12 14:55 311 -3.9
2019-Dec-12 14:50 290 1 gusting 2 -3.9
2019-Dec-12 14:45 221 -4.4
2019-Dec-12 14:40 283 0 gusting 0 -4.4
2019-Dec-12 14:35 257 0 gusting 1 -4.4
2019-Dec-12 14:30 067 -4.4
2019-Dec-12 14:25 281 0 gusting 0 -4.4
2019-Dec-12 14:20 300 0 gusting 1 -5.0
2019-Dec-12 14:15 319 -5.0
2019-Dec-12 14:10 315 -5.6
2019-Dec-12 14:05 287 -5.6
2019-Dec-12 14:00 136 -6.1
2019-Dec-12 13:55 136 -6.1
2019-Dec-12 13:50 136 -6.7
2019-Dec-12 13:45 136 -6.7
2019-Dec-12 13:40 136 -6.7
2019-Dec-12 13:35 136 -6.7
2019-Dec-12 13:30 136 -7.2
2019-Dec-12 13:25 136 -7.2
2019-Dec-12 13:20 136 -7.2
2019-Dec-12 13:15 136 -7.2
2019-Dec-12 13:10 136 -7.2
2019-Dec-12 13:05 136 -7.2
2019-Dec-12 13:00 136 -7.2
2019-Dec-12 12:55 136 -7.2
2019-Dec-12 12:50 136 -7.8
2019-Dec-12 12:45 136 -7.8
2019-Dec-12 12:40 136 -7.8
2019-Dec-12 12:35 136 -7.8
2019-Dec-12 12:30 136 -7.8
2019-Dec-12 12:25 136 -7.2
2019-Dec-12 12:20 136 -7.2
2019-Dec-12 12:15 285 -7.2
2019-Dec-12 12:05 314 -7.2
2019-Dec-12 12:00 118 -7.2
2019-Dec-12 11:55 117 -7.2
2019-Dec-12 11:50 117 -6.7
2019-Dec-12 11:45 117 -6.7
2019-Dec-12 11:40 086 -6.7
2019-Dec-12 11:35 072 -6.1
2019-Dec-12 11:30 137 -6.1
2019-Dec-12 11:25 238 -6.1
2019-Dec-12 11:20 337 0 gusting 1 -6.1
2019-Dec-12 11:15 266 -6.1
2019-Dec-12 11:10 230 0 gusting 2 -6.1
2019-Dec-12 11:05 270 0 gusting 0 -6.1
2019-Dec-12 11:00 274 0 gusting 1 -6.1
2019-Dec-12 10:55 270 0 gusting 1 -6.1
2019-Dec-12 10:50 300 0 gusting 2 -6.7
2019-Dec-12 10:45 280 0 gusting 0 -7.2
2019-Dec-12 10:40 237 -7.2
2019-Dec-12 10:35 276 -6.7
2019-Dec-12 10:30 276 -6.7
2019-Dec-12 10:25 277 -6.7
2019-Dec-12 10:20 278 -6.7
2019-Dec-12 10:15 269 -6.7
2019-Dec-12 10:10 268 -6.1
2019-Dec-12 10:05 268 -6.1
2019-Dec-12 10:00 247 0 gusting 0 -6.1
2019-Dec-12 09:55 244 -6.1
2019-Dec-12 09:50 252 -6.1
2019-Dec-12 09:45 278 -6.1
2019-Dec-12 09:40 240 -6.1
2019-Dec-12 09:35 239 -5.6
2019-Dec-12 09:30 239 -5.6
2019-Dec-12 09:25 -5.6
2019-Dec-12 09:20 -5.0
2019-Dec-12 09:15 296 -5.6
2019-Dec-12 09:10 297 -5.6
2019-Dec-12 09:05 321 0 gusting 0 -5.6
2019-Dec-12 09:00 298 0 gusting 1 -5.0
2019-Dec-12 08:55 328 0 gusting 1 -5.6
2019-Dec-12 08:50 308 -5.0
2019-Dec-12 08:45 299 0 gusting 0 -5.6
2019-Dec-12 08:40 293 -5.6
2019-Dec-12 08:35 271 -5.6
2019-Dec-12 08:30 274 -5.0
2019-Dec-12 08:25 275 -5.0
2019-Dec-12 08:20 245 0 gusting 1 -5.0
2019-Dec-12 08:15 240 0 gusting 0 -5.0
2019-Dec-12 08:10 262 0 gusting 2 -4.4
2019-Dec-12 08:05 281 0 gusting 1 -4.4
2019-Dec-12 08:00 283 0 gusting 0 -4.4
2019-Dec-12 07:55 304 1 gusting 5 -4.4
2019-Dec-12 07:50 274 0 gusting 1 -4.4
2019-Dec-12 07:45 234 -4.4
2019-Dec-12 07:40 290 0 gusting 0 -4.4
2019-Dec-12 07:35 273 -4.4
2019-Dec-12 07:30 288 -4.4
2019-Dec-12 07:25 275 0 gusting 1 -4.4
2019-Dec-12 07:20 272 0 gusting 1 -4.4
2019-Dec-12 07:10 229 0 gusting 1 -4.4
2019-Dec-12 07:05 290 0 gusting 0 -4.4
2019-Dec-12 07:00 288 0 gusting 0 -4.4
2019-Dec-12 06:55 291 -3.9
2019-Dec-12 06:50 267 -3.9
2019-Dec-12 06:45 269 -3.9
2019-Dec-12 06:40 293 0 gusting 1 -3.9
2019-Dec-12 06:35 268 0 gusting 1 -3.3
2019-Dec-12 06:30 298 0 gusting 0 -3.3
2019-Dec-12 06:25 262 1 gusting 2 -3.9
2019-Dec-12 06:20 285 -3.9
2019-Dec-12 06:15 295 -3.3
2019-Dec-12 06:10 259 -3.3
2019-Dec-12 06:05 256 0 gusting 0 -3.3
2019-Dec-12 05:55 323 0 gusting 1 -3.3
2019-Dec-12 05:50 309 -3.3
2019-Dec-12 05:45 278 -3.9
2019-Dec-12 05:40 302 -3.9
2019-Dec-12 05:35 300 -3.3
2019-Dec-12 05:30 289 -3.3
2019-Dec-12 05:25 233 -3.3
2019-Dec-12 05:20 239 -3.3
2019-Dec-12 05:15 254 -3.3
2019-Dec-12 05:10 277 -3.3
2019-Dec-12 05:05 296 -3.3
2019-Dec-12 05:00 307 -3.3
2019-Dec-12 04:55 319 -3.3
2019-Dec-12 04:50 308 -2.8
2019-Dec-12 04:45 266 -2.8
2019-Dec-12 04:40 319 1 gusting 2 -2.8
2019-Dec-12 04:35 -2.8
2019-Dec-12 04:30 288 0 gusting 1 -2.8
2019-Dec-12 04:25 244 -2.8
2019-Dec-12 04:20 319 0 gusting 1 -2.8
2019-Dec-12 04:15 295 0 gusting 2 -2.2
2019-Dec-12 04:10 231 2 gusting 5 -2.8
2019-Dec-12 04:05 279 1 gusting 3 -2.2
2019-Dec-12 04:00 294 2 gusting 6 -2.2
2019-Dec-12 03:55 285 0 gusting 1 -2.8
2019-Dec-12 03:50 286 -2.2
2019-Dec-12 03:45 301 2 gusting 5 -2.2
2019-Dec-12 03:40 311 1 gusting 3 -2.2
2019-Dec-12 03:35 293 1 gusting 4 -2.2
2019-Dec-12 03:30 319 1 gusting 2 -2.8
2019-Dec-12 03:25 295 -2.2
2019-Dec-12 03:20 310 -2.2
2019-Dec-12 03:15 340 0 gusting 1 -2.2
2019-Dec-12 03:10 326 -2.2
2019-Dec-12 03:00 302 0 gusting 1 -2.2
2019-Dec-12 02:55 280 1 gusting 2 -2.2
2019-Dec-12 02:50 321 0 gusting 2 -2.2
2019-Dec-12 02:45 335 0 gusting 1 -2.2
2019-Dec-12 02:40 271 0 gusting 1 -2.2
2019-Dec-12 02:35 266 -2.2
2019-Dec-12 02:25 233 -2.2
2019-Dec-12 02:20 223 0 gusting 1 -2.2
2019-Dec-12 02:15 252 -2.2
2019-Dec-12 02:10 309 -2.2
2019-Dec-12 02:05 309 -2.2
2019-Dec-12 02:00 295 -2.2
2019-Dec-12 01:55 353 -2.2
2019-Dec-12 01:50 292 -2.2
2019-Dec-12 01:45 290 -2.2
2019-Dec-12 01:40 318 -2.2
2019-Dec-12 01:35 294 -2.2
2019-Dec-12 01:30 307 -2.2
2019-Dec-12 01:25 227 -2.2
2019-Dec-12 01:20 218 -2.2
2019-Dec-12 01:15 099 -1.7
2019-Dec-12 01:10 122 -1.7
2019-Dec-12 01:05 349 -2.2
2019-Dec-12 01:00 -2.2
2019-Dec-12 00:55 212 -1.7
2019-Dec-12 00:50 112 -1.7
2019-Dec-12 00:45 063 -1.7
2019-Dec-12 00:40 284 -1.7
2019-Dec-12 00:35 122 -1.7
2019-Dec-12 00:30 122 -1.7
2019-Dec-12 00:25 122 -1.7
2019-Dec-12 00:20 122 -1.7
2019-Dec-12 00:15 122 -1.7
2019-Dec-12 00:10 095 -1.7
2019-Dec-12 00:05 089 -1.7
2019-Dec-12 00:00 089 -1.7
2019-Dec-11 23:55 089 -1.7
2019-Dec-11 23:50 089 -1.7
2019-Dec-11 23:45 089 -1.7
2019-Dec-11 23:40 075 -1.7
2019-Dec-11 23:35 069 -1.7
2019-Dec-11 23:30 068 -1.1
2019-Dec-11 23:25 122 -1.7
2019-Dec-11 23:20 122 -1.1
2019-Dec-11 23:15 121 -1.7
2019-Dec-11 23:10 121 -1.7
2019-Dec-11 23:05 121 -1.1
2019-Dec-11 23:00 114 -1.7
2019-Dec-11 22:55 113 -1.7
2019-Dec-11 22:50 113 -1.1
2019-Dec-11 22:45 113 -1.1
2019-Dec-11 22:40 113 -1.1
2019-Dec-11 22:35 113 -1.1
2019-Dec-11 22:30 113 -1.1
2019-Dec-11 22:25 113 -1.1
2019-Dec-11 22:20 113 -1.1
2019-Dec-11 22:15 106 -1.1
2019-Dec-11 22:10 106 -1.1
2019-Dec-11 22:05 106 -1.1
2019-Dec-11 22:00 102 -1.1
2019-Dec-11 21:55 101 -1.1
2019-Dec-11 21:50 101 -1.1
2019-Dec-11 21:45 078 -1.1
2019-Dec-11 21:40 135 -0.6
2019-Dec-11 21:35 135 -0.6
2019-Dec-11 21:30 135 -0.6
2019-Dec-11 21:25 135 -0.6
2019-Dec-11 21:20 135 -0.6
2019-Dec-11 21:15 135 -0.6
2019-Dec-11 21:10 135 -0.6
2019-Dec-11 21:05 135 -0.0
2019-Dec-11 21:00 135 -0.0
2019-Dec-11 20:55 135 -0.0
2019-Dec-11 20:50 135 -0.0
2019-Dec-11 20:45 135 -0.0
2019-Dec-11 20:40 135 -0.0
2019-Dec-11 20:35 154 -0.0
2019-Dec-11 20:30 154 0.6
2019-Dec-11 20:25 154 0.6
2019-Dec-11 20:20 154 0.6
2019-Dec-11 20:15 154 0.6
2019-Dec-11 20:10 155 0.6
2019-Dec-11 20:05 155 0.6
2019-Dec-11 20:00 155 0.6
2019-Dec-11 19:55 119 0.6
2019-Dec-11 19:50 118 0.6
2019-Dec-11 19:45 113 0.6
2019-Dec-11 19:40 229 0.6
2019-Dec-11 19:35 277 0.6
2019-Dec-11 19:30 302 0.6
2019-Dec-11 19:25 302 0.6
2019-Dec-11 19:20 302 0.6
2019-Dec-11 19:15 302 0.6
2019-Dec-11 19:10 302 0.6
2019-Dec-11 19:05 311 0.6
2019-Dec-11 19:00 310 0.6
2019-Dec-11 18:55 310 0.6
2019-Dec-11 18:50 310 0.6
2019-Dec-11 18:45 310 0.6
2019-Dec-11 18:40 311 0.6
2019-Dec-11 18:35 311 0.6
2019-Dec-11 18:30 309 0.6
2019-Dec-11 18:25 288 0.6
2019-Dec-11 18:20 288 0.6
2019-Dec-11 18:15 326 0.6
2019-Dec-11 18:10 190 0.6
2019-Dec-11 18:05 190 0.6
2019-Dec-11 17:55 190 0.6
2019-Dec-11 17:50 190 0.6
2019-Dec-11 17:45 190 0.6
2019-Dec-11 17:40 190 0.6
2019-Dec-11 17:35 190 0.6
2019-Dec-11 17:30 190 0.6
2019-Dec-11 17:25 190 0.6
2019-Dec-11 17:20 190 0.6
2019-Dec-11 17:15 190 0.6
2019-Dec-11 17:10 190 -0.0
2019-Dec-11 17:05 190 -0.0
2019-Dec-11 17:00 190 -0.0
2019-Dec-11 16:55 190 -0.0
2019-Dec-11 16:50 190 0.6
2019-Dec-11 16:45 190 0.6
2019-Dec-11 16:40 190 0.6
2019-Dec-11 16:35 190 0.6
2019-Dec-11 16:30 190 0.6
2019-Dec-11 16:25 190 0.6
2019-Dec-11 16:20 190 -0.0
2019-Dec-11 16:15 190 -0.0
2019-Dec-11 16:10 190 -0.0
2019-Dec-11 16:05 190 -0.0
2019-Dec-11 16:00 190 -0.0
2019-Dec-11 15:55 190 -0.0
2019-Dec-11 15:50 190 -0.0
2019-Dec-11 15:45 190 -0.0
2019-Dec-11 15:40 190 -0.0
2019-Dec-11 15:35 190 -0.6
2019-Dec-11 15:30 190 -0.6
2019-Dec-11 15:25 190 -0.6
2019-Dec-11 15:20 190 -0.6
2019-Dec-11 15:15 190 -0.6
2019-Dec-11 15:10 190 -0.6
2019-Dec-11 15:05 190 -0.6
2019-Dec-11 15:00 190 -1.1
2019-Dec-11 14:55 190 -1.1
2019-Dec-11 14:50 190 -1.1
2019-Dec-11 14:45 190 -1.1
2019-Dec-11 14:40 190 -1.1
2019-Dec-11 14:35 190 -1.1
2019-Dec-11 14:30 190 -1.1
2019-Dec-11 14:25 190 -1.1
2019-Dec-11 14:20 190 -1.1
2019-Dec-11 14:15 190 -1.1
2019-Dec-11 14:10 190 -1.7
2019-Dec-11 14:05 190 -1.1
2019-Dec-11 14:00 190 -1.1
2019-Dec-11 13:55 190 -1.1
2019-Dec-11 13:50 190 -1.1
2019-Dec-11 13:45 190 -1.1
2019-Dec-11 13:40 190 -1.1
2019-Dec-11 13:35 190 -1.1
2019-Dec-11 13:30 190 -1.1
2019-Dec-11 13:25 190 -1.1
2019-Dec-11 13:20 190 -1.1
2019-Dec-11 13:15 190 -1.1
2019-Dec-11 13:10 190 -1.1
2019-Dec-11 13:05 190 -1.1
2019-Dec-11 13:00 190 -1.1
2019-Dec-11 12:55 190 -1.1
2019-Dec-11 12:50 190 -1.1
2019-Dec-11 12:45 190 -1.1
2019-Dec-11 12:40 190 -1.1
2019-Dec-11 12:35 190 -1.1
2019-Dec-11 12:30 190 -1.1
2019-Dec-11 12:25 190 -1.1
2019-Dec-11 12:20 190 -1.1
2019-Dec-11 12:15 190 -1.1
2019-Dec-11 12:10 190 -1.1
2019-Dec-11 12:05 190 -1.1
2019-Dec-11 12:00 190 -1.1
2019-Dec-11 11:55 190 -1.1
2019-Dec-11 11:50 190 -1.1
2019-Dec-11 11:45 190 -1.1
2019-Dec-11 11:40 190 -1.1
2019-Dec-11 11:35 190 -1.1
2019-Dec-11 11:30 190 -1.1
2019-Dec-11 11:25 190 -1.1
2019-Dec-11 11:20 190 -1.1
2019-Dec-11 11:15 190 -1.1
2019-Dec-11 11:10 190 -1.1
2019-Dec-11 11:05 190 -1.1
2019-Dec-11 11:00 190 -1.1
2019-Dec-11 10:55 190 -1.1
2019-Dec-11 10:50 190 -1.1
2019-Dec-11 10:45 190 -1.1
2019-Dec-11 10:40 190 -1.1
2019-Dec-11 10:35 190 -1.1
2019-Dec-11 10:30 190 -0.6
2019-Dec-11 10:25 190 -0.6
2019-Dec-11 10:20 190 -0.6
2019-Dec-11 10:15 190 -0.6
2019-Dec-11 10:10 190 -0.6
2019-Dec-11 10:05 266 -0.6
2019-Dec-11 10:00 299 -0.6
2019-Dec-11 09:55 182 -0.6
2019-Dec-11 09:50 181 -0.6
2019-Dec-11 09:45 288 -0.6
2019-Dec-11 09:40 -0.0
2019-Dec-11 09:35 238 -0.0
2019-Dec-11 09:30 248 -0.0
2019-Dec-11 09:25 116 -0.0
2019-Dec-11 09:20 220 -0.0
2019-Dec-11 09:15 221 -0.0
2019-Dec-11 09:10 114 -0.0
2019-Dec-11 09:05 262 -0.0
2019-Dec-11 09:00 238 0 gusting 1 -0.0
2019-Dec-11 08:50 295 -0.0
2019-Dec-11 08:45 096 -0.0
2019-Dec-11 08:40 271 -0.0
2019-Dec-11 08:35 304 -0.0
2019-Dec-11 08:30 113 -0.0
2019-Dec-11 08:25 214 -0.0
2019-Dec-11 08:20 232 -0.0
2019-Dec-11 08:15 248 -0.0
2019-Dec-11 08:10 232 -0.0
2019-Dec-11 08:05 232 -0.0
2019-Dec-11 08:00 233 -0.0
2019-Dec-11 07:55 233 -0.0
2019-Dec-11 07:50 233 -0.0
2019-Dec-11 07:45 284 -0.0
2019-Dec-11 07:40 141 -0.0
2019-Dec-11 07:35 269 -0.0
2019-Dec-11 07:30 269 -0.0
2019-Dec-11 07:25 270 0.6
2019-Dec-11 07:20 269 0.6
2019-Dec-11 07:15 271 0.6
2019-Dec-11 07:10 230 0.6
2019-Dec-11 07:05 223 0.6
2019-Dec-11 07:00 223 0.6
2019-Dec-11 06:55 223 0.6
2019-Dec-11 06:50 223 1.1
2019-Dec-11 06:45 223 1.1
2019-Dec-11 06:40 223 1.1
2019-Dec-11 06:35 223 1.1
2019-Dec-11 06:30 250 1.1
2019-Dec-11 06:25 240 0 gusting 0 1.7
2019-Dec-11 06:20 238 0 gusting 0 1.7
2019-Dec-11 06:15 265 0 gusting 1 1.7
2019-Dec-11 06:10 278 0 gusting 1 2.2
2019-Dec-11 06:05 290 1 gusting 4 2.2
2019-Dec-11 06:00 248 1 gusting 2 2.2
2019-Dec-11 05:55 278 1 gusting 2 2.2
2019-Dec-11 05:50 272 1 gusting 2 2.2
2019-Dec-11 05:45 313 2 gusting 4 2.8
2019-Dec-11 05:40 259 1 gusting 3 2.8
2019-Dec-11 05:35 308 1 gusting 3 2.8
2019-Dec-11 05:30 325 1 gusting 2 2.8
2019-Dec-11 05:25 203 1 gusting 4 2.8
2019-Dec-11 05:20 316 2 gusting 3 3.3
2019-Dec-11 05:15 273 3.3
2019-Dec-11 05:10 272 0 gusting 1 3.3
2019-Dec-11 05:05 245 1 gusting 2 3.3
2019-Dec-11 05:00 297 1 gusting 2 3.3
2019-Dec-11 04:55 279 1 gusting 3 3.3
2019-Dec-11 04:50 312 2 gusting 5 3.3
2019-Dec-11 04:45 287 1 gusting 3 3.3
2019-Dec-11 04:40 244 1 gusting 1 3.9
2019-Dec-11 04:35 258 0 gusting 2 3.9
2019-Dec-11 04:30 309 0 gusting 1 3.9
2019-Dec-11 04:25 292 3 gusting 4 3.9
2019-Dec-11 04:20 271 0 gusting 1 4.4
2019-Dec-11 04:15 259 2 gusting 4 4.4
2019-Dec-11 04:10 319 2 gusting 3 4.4
2019-Dec-11 04:05 289 1 gusting 2 4.4
2019-Dec-11 04:00 293 5 gusting 8 5.0
2019-Dec-11 03:55 318 3 gusting 6 5.0
2019-Dec-11 03:50 293 5 gusting 10 5.0
2019-Dec-11 03:45 288 2 gusting 3 5.0
2019-Dec-11 03:40 304 4 gusting 6 5.0
2019-Dec-11 03:35 313 1 gusting 2 5.6
2019-Dec-11 03:30 307 4 gusting 6 5.6
2019-Dec-11 03:25 276 3 gusting 6 6.1
2019-Dec-11 03:20 327 3 gusting 5 6.1
2019-Dec-11 03:15 250 4 gusting 6 6.1
2019-Dec-11 03:10 323 4 gusting 6 6.1
2019-Dec-11 03:05 247 5 gusting 8 6.1
2019-Dec-11 03:00 288 2 gusting 4 6.1
2019-Dec-11 02:55 342 1 gusting 1 6.1
2019-Dec-11 02:50 299 2 gusting 4 6.1
2019-Dec-11 02:45 281 4 gusting 8 6.1
2019-Dec-11 02:40 295 2 gusting 6 6.1
2019-Dec-11 02:35 310 2 gusting 5 6.1
2019-Dec-11 02:30 287 2 gusting 3 6.1
2019-Dec-11 02:25 304 2 gusting 4 6.7
2019-Dec-11 02:20 309 1 gusting 4 6.7
2019-Dec-11 02:15 293 4 gusting 5 6.7
2019-Dec-11 02:10 327 2 gusting 4 6.7
2019-Dec-11 02:05 358 2 gusting 4 6.7
2019-Dec-11 02:00 335 2 gusting 3 6.7
2019-Dec-11 01:55 008 5 gusting 9 6.7
2019-Dec-11 01:45 309 5 gusting 6 7.2
2019-Dec-11 01:40 212 6 gusting 11 7.2
2019-Dec-11 01:35 288 6 gusting 15 7.2
2019-Dec-11 01:30 330 4 gusting 6 7.8
2019-Dec-11 01:25 080 6 gusting 12 7.8
2019-Dec-11 01:20 215 4 gusting 6 7.8
2019-Dec-11 01:15 252 3 gusting 6 7.8
2019-Dec-11 01:10 308 4 gusting 5 7.8
2019-Dec-11 01:05 316 1 gusting 3 7.8
2019-Dec-11 01:00 010 0 gusting 1 7.8
2019-Dec-11 00:55 137 7.8
2019-Dec-11 00:50 278 7.8
2019-Dec-11 00:45 278 7.8
2019-Dec-11 00:40 293 0 gusting 0 7.8
2019-Dec-11 00:35 222 0 gusting 0 7.8
2019-Dec-11 00:30 288 0 gusting 3 8.3
2019-Dec-11 00:25 266 0 gusting 1 8.3
2019-Dec-11 00:20 269 0 gusting 1 8.3
2019-Dec-11 00:15 319 1 gusting 3 8.3
2019-Dec-11 00:10 262 3 gusting 7 8.9
2019-Dec-11 00:05 311 3 gusting 5 8.9
2019-Dec-11 00:00 220 3 gusting 6 8.9
2019-Dec-10 23:55 284 3 gusting 6 9.4
2019-Dec-10 23:45 266 5 gusting 9 10.0
2019-Dec-10 23:40 295 6 gusting 11 10.0
2019-Dec-10 23:35 306 1 gusting 3 10.6
2019-Dec-10 23:30 281 0 gusting 2 10.6
2019-Dec-10 23:25 293 0 gusting 2 10.6
2019-Dec-10 23:20 153 1 gusting 3 10.6
2019-Dec-10 23:15 283 0 gusting 1 10.6
2019-Dec-10 23:10 220 1 gusting 5 11.1
2019-Dec-10 23:05 251 0 gusting 1 11.1
2019-Dec-10 23:00 236 11.1